Location: Zagreb
(45.8000°N, 16.0000°E)
Time: 00:19:45
(UTC+01:00)

Transit 2A Rocket - Pass Details

Date: 07 October 2020
Orbit: 586 x 916 km, 66.7° (Epoch: 28 October)

Event Time Altitude Azimuth Distance (km) Brightness Sun altitude
Rises 17:27:06 0° 255° (WSW) 3,545 10.9 8.9°
Reaches altitude 10° 17:30:07 10° 268° (W) 2,608 9.7 8.4°
Maximum altitude 17:35:02 25° 322° (NW) 1,760 7.2 7.6°
Drops below altitude 10° 17:39:52 10° 16° (NNE) 2,549 7.4 6.7°
Sets 17:42:48 0° 30° (NNE) 3,449 8.0 6.3°
